| time (UTC) | temp F | wind direction | speed knots | gust knots | rain 1hr in | rain 24hr in | rain mn in | humidity % | barometer mb |
| 20260510214003 | 48 | 29 | 0.9 | 3.5 | 0.00 | 0.00 | 0.00 | 59 | 1013.8 |
| 20260510213003 | 48 | 9 | 1.7 | 2.6 | 0.00 | 0.00 | 0.00 | 60 | 1013.8 |
| 20260510212003 | 48 | 8 | 1.7 | 2.6 | 0.00 | 0.00 | 0.00 | 59 | 1013.8 |
| 20260510211003 | 49 | 8 | 1.7 | 2.6 | 0.00 | 0.00 | 0.00 | 58 | 1013.8 |
| 20260510210217 | 49 | 17 | 1.7 | 2.6 | 0.00 | 0.00 | 0.00 | 57 | 1013.8 |
| 20260510205003 | 49 | 3 | 1.7 | 3.5 | 0.00 | 0.00 | 0.00 | 58 | 1014.0 |
| 20260510204219 | 49 | 5 | 1.7 | 3.5 | 0.00 | 0.00 | 0.00 | 58 | 1013.6 |
| 20260510203220 | 50 | 7 | 1.7 | 2.6 | 0.00 | 0.00 | 0.00 | 57 | 1013.6 |
| 20260510202003 | 50 | 6 | 1.7 | 2.6 | 0.00 | 0.00 | 0.00 | 57 | 1013.7 |
| 20260510201003 | 51 | 5 | 1.7 | 3.5 | 0.00 | 0.00 | 0.00 | 56 | 1013.8 |
| 20260510200218 | 51 | 19 | 1.7 | 5.2 | 0.00 | 0.00 | 0.00 | 55 | 1013.6 |
| 20260510195219 | 52 | 25 | 1.7 | 6.1 | 0.00 | 0.00 | 0.00 | 54 | 1013.7 |
| 20260510194003 | 52 | 28 | 2.6 | 6.1 | 0.00 | 0.00 | 0.00 | 52 | 1013.9 |
| 20260510193003 | 52 | 8 | 1.7 | 5.2 | 0.00 | 0.00 | 0.00 | 54 | 1013.9 |
| 20260510192003 | 53 | 15 | 1.7 | 7.0 | 0.00 | 0.00 | 0.00 | 53 | 1013.7 |
| 20260510191003 | 54 | 24 | 3.5 | 8.7 | 0.00 | 0.00 | 0.00 | 51 | 1013.8 |
| 20260510190003 | 54 | 35 | 2.6 | 5.2 | 0.00 | 0.00 | 0.00 | 51 | 1013.5 |
| 20260510185219 | 54 | 33 | 2.6 | 7.0 | 0.00 | 0.00 | 0.00 | 51 | 1013.8 |
| 20260510184003 | 55 | 51 | 4.3 | 9.6 | 0.00 | 0.00 | 0.00 | 50 | 1013.5 |
| 20260510183003 | 55 | 55 | 5.2 | 9.6 | 0.00 | 0.00 | 0.00 | 49 | 1013.7 |
| 20260510182003 | 56 | 57 | 4.3 | 12.2 | 0.00 | 0.00 | 0.00 | 50 | 1013.6 |
| 20260510181003 | 56 | 54 | 3.5 | 8.7 | 0.00 | 0.00 | 0.00 | 49 | 1013.6 |
| 20260510180003 | 56 | 53 | 3.5 | 7.8 | 0.00 | 0.00 | 0.00 | 51 | 1013.7 |
| 20260510175220 | 56 | 44 | 3.5 | 9.6 | 0.00 | 0.00 | 0.00 | 50 | 1013.7 |
| 20260510174003 | 56 | 57 | 4.3 | 12.2 | 0.00 | 0.00 | 0.00 | 50 | 1013.8 |
| 20260510173003 | 56 | 47 | 5.2 | 9.6 | 0.00 | 0.00 | 0.00 | 50 | 1013.8 |
| 20260510172003 | 58 | 64 | 6.1 | 11.3 | 0.00 | 0.00 | 0.00 | 50 | 1013.9 |
| 20260510171003 | 57 | 60 | 4.3 | 11.3 | 0.00 | 0.00 | 0.00 | 53 | 1013.8 |
| 20260510170003 | 57 | 49 | 3.5 | 7.8 | 0.00 | 0.00 | 0.00 | 52 | 1014.1 |
| 20260510165003 | 57 | 58 | 5.2 | 13.9 | 0.00 | 0.00 | 0.00 | 51 | 1014.3 |
| 20260510164003 | 58 | 60 | 5.2 | 11.3 | 0.00 | 0.00 | 0.00 | 55 | 1014.3 |
| 20260510163003 | 57 | 55 | 5.2 | 11.3 | 0.00 | 0.00 | 0.00 | 53 | 1014.4 |
| 20260510162003 | 58 | 70 | 4.3 | 13.9 | 0.00 | 0.00 | 0.00 | 52 | 1014.6 |
| 20260510161003 | 57 | 62 | 4.3 | 8.7 | 0.00 | 0.00 | 0.00 | 52 | 1014.6 |
| 20260510160003 | 56 | 57 | 5.2 | 11.3 | 0.00 | 0.00 | 0.00 | 55 | 1014.7 |
| 20260510155003 | 57 | 77 | 6.1 | 12.2 | 0.00 | 0.00 | 0.00 | 54 | 1014.9 |
| 20260510154003 | 56 | 56 | 6.1 | 11.3 | 0.00 | 0.00 | 0.00 | 56 | 1014.9 |
| 20260510153003 | 57 | 59 | 5.2 | 9.6 | 0.00 | 0.00 | 0.00 | 57 | 1014.9 |
| 20260510152003 | 57 | 59 | 6.1 | 12.2 | 0.00 | 0.00 | 0.00 | 58 | 1015.0 |
| 20260510151003 | 57 | 64 | 6.1 | 12.2 | 0.00 | 0.00 | 0.00 | 60 | 1015.0 |
| 20260510150003 | 58 | 62 | 5.2 | 12.2 | 0.00 | 0.00 | 0.00 | 56 | 1015.4 |
| 20260510145217 | 57 | 65 | 5.2 | 12.2 | 0.00 | 0.00 | 0.00 | 56 | 1015.4 |
| 20260510144003 | 55 | 62 | 5.2 | 14.8 | 0.00 | 0.00 | 0.00 | 61 | 1015.6 |
| 20260510143003 | 56 | 60 | 5.2 | 11.3 | 0.00 | 0.00 | 0.00 | 60 | 1015.8 |
| 20260510142003 | 55 | 53 | 5.2 | 11.3 | 0.00 | 0.00 | 0.00 | 62 | 1015.9 |
| 20260510141003 | 55 | 61 | 6.1 | 13.9 | 0.00 | 0.00 | 0.00 | 62 | 1015.8 |
| 20260510140003 | 55 | 55 | 5.2 | 11.3 | 0.00 | 0.00 | 0.00 | 64 | 1015.9 |
| 20260510135003 | 55 | 56 | 6.1 | 13.0 | 0.00 | 0.00 | 0.00 | 63 | 1016.0 |
| 20260510134218 | 54 | 55 | 6.1 | 12.2 | 0.00 | 0.00 | 0.00 | 65 | 1016.2 |
| 20260510133003 | 54 | 49 | 6.1 | 12.2 | 0.00 | 0.00 | 0.00 | 64 | 1016.0 |
| 20260510132003 | 54 | 48 | 6.1 | 13.0 | 0.00 | 0.00 | 0.00 | 66 | 1016.3 |
| 20260510131003 | 54 | 42 | 6.1 | 16.5 | 0.00 | 0.00 | 0.00 | 66 | 1016.3 |
| 20260510130003 | 54 | 61 | 6.1 | 16.5 | 0.00 | 0.00 | 0.00 | 66 | 1016.1 |
| 20260510125003 | 54 | 40 | 5.2 | 12.2 | 0.00 | 0.00 | 0.00 | 67 | 1016.4 |
| 20260510124219 | 54 | 50 | 6.1 | 13.9 | 0.00 | 0.00 | 0.00 | 67 | 1016.6 |
| 20260510123003 | 54 | 52 | 7.0 | 15.6 | 0.00 | 0.00 | 0.00 | 68 | 1016.6 |
| 20260510122003 | 54 | 56 | 6.1 | 13.0 | 0.00 | 0.00 | 0.00 | 68 | 1016.7 |
| 20260510121003 | 54 | 50 | 6.1 | 13.0 | 0.00 | 0.00 | 0.00 | 69 | 1016.8 |
| 20260510120003 | 53 | 47 | 6.1 | 11.3 | 0.00 | 0.00 | 0.00 | 70 | 1017.0 |
| 20260510115003 | 53 | 43 | 5.2 | 14.8 | 0.00 | 0.00 | 0.00 | 70 | 1017.1 |
| 20260510114003 | 52 | 45 | 7.8 | 15.6 | 0.00 | 0.00 | 0.00 | 70 | 1017.0 |
| 20260510113003 | 52 | 60 | 6.1 | 13.0 | 0.00 | 0.00 | 0.00 | 72 | 1017.2 |
| 20260510112003 | 52 | 46 | 7.0 | 13.0 | 0.00 | 0.00 | 0.00 | 72 | 1017.2 |
| 20260510111003 | 51 | 49 | 5.2 | 12.2 | 0.00 | 0.00 | 0.00 | 73 | 1017.3 |
| 20260510110003 | 51 | 38 | 5.2 | 13.0 | 0.00 | 0.00 | 0.00 | 73 | 1017.3 |
| 20260510105003 | 51 | 37 | 6.1 | 14.8 | 0.00 | 0.00 | 0.00 | 74 | 1017.7 |
| 20260510104003 | 51 | 48 | 6.1 | 13.9 | 0.00 | 0.00 | 0.00 | 75 | 1017.7 |
| 20260510103003 | 51 | 55 | 5.2 | 11.3 | 0.00 | 0.00 | 0.00 | 76 | 1017.6 |
| 20260510102003 | 51 | 44 | 6.1 | 12.2 | 0.00 | 0.00 | 0.00 | 76 | 1017.7 |
| 20260510101003 | 51 | 47 | 6.1 | 13.0 | 0.00 | 0.00 | 0.00 | 77 | 1017.8 |
| 20260510100003 | 51 | 53 | 7.0 | 14.8 | 0.00 | 0.00 | 0.00 | 77 | 1017.6 |
| 20260510095003 | 50 | 58 | 7.0 | 14.8 | 0.00 | 0.00 | 0.00 | 77 | 1017.8 |
| 20260510094003 | 50 | 54 | 7.0 | 13.9 | 0.00 | 0.00 | 0.00 | 78 | 1017.8 |
| 20260510093003 | 50 | 59 | 6.1 | 13.0 | 0.00 | 0.00 | 0.00 | 79 | 1018.0 |
| 20260510092003 | 49 | 41 | 7.0 | 15.6 | 0.00 | 0.00 | 0.00 | 79 | 1018.0 |
| 20260510091003 | 49 | 37 | 6.1 | 13.0 | 0.00 | 0.00 | 0.00 | 79 | 1017.9 |
| 20260510090003 | 49 | 55 | 7.0 | 14.8 | 0.00 | 0.00 | 0.00 | 79 | 1018.1 |
| 20260510085003 | 49 | 46 | 7.0 | 14.8 | 0.00 | 0.00 | 0.00 | 79 | 1018.0 |
| 20260510084003 | 49 | 35 | 6.1 | 14.8 | 0.00 | 0.00 | 0.00 | 79 | 1018.1 |
| 20260510083003 | 49 | 55 | 7.0 | 13.0 | 0.00 | 0.00 | 0.00 | 79 | 1018.1 |
| 20260510082003 | 50 | 39 | 6.1 | 14.8 | 0.00 | 0.00 | 0.00 | 79 | 1018.1 |
| 20260510081003 | 50 | 34 | 6.1 | 13.0 | 0.00 | 0.00 | 0.00 | 79 | 1018.1 |
| 20260510080003 | 50 | 34 | 6.1 | 12.2 | 0.00 | 0.00 | 0.00 | 79 | 1017.9 |
| 20260510075003 | 50 | 49 | 6.1 | 13.0 | 0.00 | 0.00 | 0.00 | 79 | 1018.1 |
| 20260510074003 | 50 | 50 | 6.1 | 12.2 | 0.00 | 0.00 | 0.00 | 80 | 1018.0 |
| 20260510073218 | 51 | 41 | 6.1 | 15.6 | 0.00 | 0.00 | 0.00 | 79 | 1018.2 |
| 20260510072003 | 50 | 42 | 7.8 | 18.2 | 0.00 | 0.00 | 0.00 | 80 | 1017.9 |
| 20260510071003 | 50 | 39 | 6.1 | 14.8 | 0.00 | 0.00 | 0.00 | 80 | 1018.0 |
| 20260510070003 | 51 | 43 | 6.1 | 18.2 | 0.00 | 0.00 | 0.00 | 79 | 1017.8 |
| 20260510065003 | 50 | 43 | 7.0 | 14.8 | 0.00 | 0.00 | 0.00 | 80 | 1017.8 |
| 20260510064003 | 51 | 56 | 6.1 | 14.8 | 0.00 | 0.00 | 0.00 | 79 | 1017.8 |
| 20260510063003 | 51 | 36 | 5.2 | 11.3 | 0.00 | 0.00 | 0.00 | 79 | 1017.7 |
| 20260510062003 | 51 | 43 | 5.2 | 11.3 | 0.00 | 0.00 | 0.00 | 79 | 1017.6 |
| 20260510061003 | 51 | 48 | 4.3 | 9.6 | 0.00 | 0.00 | 0.00 | 79 | 1017.7 |
| 20260510060003 | 51 | 41 | 6.1 | 13.0 | 0.00 | 0.00 | 0.00 | 79 | 1017.5 |
| 20260510055003 | 50 | 40 | 5.2 | 12.2 | 0.00 | 0.00 | 0.00 | 79 | 1017.4 |
| 20260510054003 | 50 | 48 | 6.1 | 13.9 | 0.00 | 0.00 | 0.00 | 79 | 1017.5 |
| 20260510053003 | 50 | 37 | 5.2 | 14.8 | 0.00 | 0.00 | 0.00 | 80 | 1017.7 |
| 20260510052003 | 50 | 40 | 6.1 | 18.2 | 0.00 | 0.00 | 0.00 | 79 | 1017.5 |
| 20260510051221 | 49 | 37 | 6.1 | 11.3 | 0.00 | 0.00 | 0.00 | 80 | 1017.4 |
| 20260510050003 | 49 | 42 | 5.2 | 12.2 | 0.00 | 0.00 | 0.00 | 81 | 1017.5 |
| 20260510045003 | 49 | 28 | 5.2 | 12.2 | 0.00 | 0.00 | 0.00 | 80 | 1017.4 |
| 20260510044003 | 49 | 42 | 6.1 | 15.6 | 0.00 | 0.00 | 0.00 | 80 | 1017.6 |
| 20260510043003 | 49 | 40 | 6.1 | 13.0 | 0.00 | 0.00 | 0.00 | 80 | 1017.7 |
| 20260510042003 | 49 | 35 | 6.1 | 13.0 | 0.00 | 0.00 | 0.00 | 80 | 1017.7 |
| 20260510041217 | 49 | 43 | 6.1 | 13.0 | 0.00 | 0.00 | 0.00 | 80 | 1017.6 |
| 20260510040003 | 49 | 43 | 5.2 | 11.3 | 0.00 | 0.00 | 0.00 | 81 | 1017.7 |
| 20260510035003 | 49 | 35 | 5.2 | 12.2 | 0.00 | 0.00 | 0.00 | 82 | 1017.7 |
| 20260510034003 | 49 | 40 | 4.3 | 12.2 | 0.00 | 0.00 | 0.00 | 82 | 1017.8 |
| 20260510033003 | 49 | 46 | 4.3 | 12.2 | 0.00 | 0.00 | 0.00 | 83 | 1017.6 |
| 20260510032003 | 49 | 44 | 5.2 | 9.6 | 0.00 | 0.00 | 0.00 | 84 | 1018.0 |
| 20260510031003 | 49 | 41 | 6.1 | 16.5 | 0.00 | 0.00 | 0.00 | 84 | 1018.3 |
| 20260510030003 | 49 | 40 | 6.1 | 13.9 | 0.00 | 0.01 | 0.00 | 84 | 1018.1 |
| 20260510025003 | 49 | 48 | 6.1 | 15.6 | 0.00 | 0.01 | 0.00 | 84 | 1018.1 |
| 20260510024003 | 49 | 53 | 7.0 | 16.5 | 0.00 | 0.01 | 0.00 | 83 | 1018.2 |
| 20260510023003 | 50 | 62 | 6.1 | 13.0 | 0.00 | 0.01 | 0.00 | 83 | 1018.0 |
| 20260510022003 | 50 | 56 | 6.1 | 13.9 | 0.00 | 0.01 | 0.00 | 82 | 1018.1 |
| 20260510021218 | 50 | 45 | 7.0 | 15.6 | 0.00 | 0.01 | 0.00 | 81 | 1018.0 |
| 20260510020003 | 50 | 39 | 6.1 | 13.9 | 0.00 | 0.01 | 0.00 | 81 | 1018.0 |
| 20260510015003 | 50 | 48 | 7.0 | 13.0 | 0.00 | 0.01 | 0.00 | 81 | 1017.9 |
| 20260510014003 | 50 | 51 | 7.8 | 16.5 | 0.00 | 0.01 | 0.00 | 81 | 1018.0 |
| 20260510013003 | 50 | 48 | 7.0 | 13.9 | 0.00 | 0.01 | 0.00 | 81 | 1017.7 |
| 20260510012003 | 50 | 45 | 7.0 | 16.5 | 0.00 | 0.01 | 0.00 | 80 | 1018.0 |
| 20260510011003 | 50 | 49 | 7.8 | 14.8 | 0.00 | 0.01 | 0.00 | 79 | 1017.9 |
| 20260510010003 | 51 | 33 | 7.8 | 15.6 | 0.00 | 0.01 | 0.00 | 79 | 1017.8 |
| 20260510005003 | 51 | 35 | 8.7 | 16.5 | 0.00 | 0.01 | 0.00 | 79 | 1018.2 |
| 20260510004003 | 51 | 33 | 7.8 | 19.1 | 0.00 | 0.01 | 0.00 | 78 | 1018.0 |
| 20260510003003 | 51 | 29 | 7.0 | 18.2 | 0.00 | 0.01 | 0.00 | 79 | 1017.9 |
| 20260510002003 | 51 | 31 | 7.0 | 15.6 | 0.00 | 0.01 | 0.00 | 79 | 1017.9 |
| 20260510001003 | 52 | 23 | 7.0 | 18.2 | 0.00 | 0.01 | 0.00 | 79 | 1017.9 |
| 20260510000003 | 52 | 27 | 7.0 | 13.9 | 0.00 | 0.01 | 0.00 | 79 | 1017.7 |
| 20260509235003 | 52 | 26 | 7.0 | 12.2 | 0.00 | 0.01 | 0.00 | 79 | 1017.7 |
| 20260509234003 | 52 | 17 | 6.1 | 13.0 | 0.00 | 0.01 | 0.00 | 78 | 1017.7 |
| 20260509233003 | 53 | 20 | 5.2 | 12.2 | 0.00 | 0.01 | 0.00 | 78 | 1017.8 |
| 20260509232003 | 53 | 16 | 5.2 | 13.0 | 0.00 | 0.01 | 0.00 | 77 | 1017.7 |
| 20260509231003 | 53 | 19 | 6.1 | 14.8 | 0.00 | 0.01 | 0.00 | 77 | 1017.6 |
| 20260509230003 | 54 | 29 | 6.1 | 13.0 | 0.00 | 0.01 | 0.00 | 76 | 1017.5 |
| 20260509225003 | 54 | 23 | 6.1 | 13.9 | 0.00 | 0.01 | 0.01 | 75 | 1017.6 |
| 20260509224218 | 54 | 24 | 5.2 | 12.2 | 0.00 | 0.01 | 0.01 | 75 | 1017.4 |
| 20260509223003 | 55 | 25 | 5.2 | 14.8 | 0.00 | 0.01 | 0.01 | 75 | 1017.2 |
| 20260509222003 | 55 | 23 | 6.1 | 16.5 | 0.00 | 0.01 | 0.01 | 75 | 1017.3 |
| 20260509221003 | 56 | 19 | 5.2 | 13.0 | 0.00 | 0.01 | 0.01 | 75 | 1017.2 |
| 20260509220003 | 56 | 19 | 6.1 | 12.2 | 0.00 | 0.01 | 0.01 | 75 | 1017.2 |
| 20260509215003 | 56 | 16 | 5.2 | 13.0 | 0.00 | 0.01 | 0.01 | 74 | 1017.1 |